This is the latest recevied weather packets stored in our database for station/object W7JFO-3. If no packets are shown the sender has not sent any weather packets the latest 10 day(s).
| Time | Temp. | Humidity | Pressure | Rain* | Wind** | Luminosity | Snow |
|---|---|---|---|---|---|---|---|
| 1777905106 | 10° C | 51% | 1009.7 hPa | 0 mm | - | 237 W/m² | - |
| 1777904206 | 9.44° C | 51% | 1009.7 hPa | 0 mm | - | 192 W/m² | - |
| 1777903306 | 8.89° C | 50% | 1009.3 hPa | 0 mm | - | 160 W/m² | - |
| 1777902406 | 8.89° C | 51% | 1009.2 hPa | 0 mm | - | 162 W/m² | - |
| 1777901506 | 8.89° C | 49% | 1009.1 hPa | 0 mm | - | 111 W/m² | - |
| 1777900606 | 8.33° C | 49% | 1008.9 hPa | 0 mm | - | 81 W/m² | - |
| 1777899706 | 8.33° C | 50% | 1008.8 hPa | 0 mm | - | 37 W/m² | - |
| 1777898806 | 8.33° C | 48% | 1008.8 hPa | 0 mm | - | 23 W/m² | - |
| 1777897906 | 8.89° C | 48% | 1008.6 hPa | 0 mm | - | 11 W/m² | - |
| 1777897006 | 8.89° C | 47% | 1008.8 hPa | 0 mm | - | 0 W/m² | - |
| 1777896106 | 8.89° C | 47% | 1008.6 hPa | 0 mm | - | 0 W/m² | - |
| 1777895206 | 8.89° C | 47% | 1008.4 hPa | 0 mm | - | 0 W/m² | - |
| 1777894306 | 8.89° C | 47% | 1008.1 hPa | 0 mm | - | 0 W/m² | - |
| 1777893406 | 9.44° C | 46% | 1008.5 hPa | 0 mm | - | 0 W/m² | - |
| 1777892506 | 9.44° C | 46% | 1008 hPa | 0 mm | - | 0 W/m² | - |
| 1777891606 | 9.44° C | 46% | 1008 hPa | 0 mm | - | 0 W/m² | - |
| 1777890706 | 10° C | 45% | 1008 hPa | 0 mm | - | 0 W/m² | - |
| 1777889806 | 10° C | 45% | 1007.8 hPa | 0 mm | - | 0 W/m² | - |
| 1777888906 | 10° C | 45% | 1008 hPa | 0 mm | - | 0 W/m² | - |
| 1777888006 | 10.56° C | 44% | 1007.7 hPa | 0 mm | - | 0 W/m² | - |
| 1777887107 | 10.56° C | 45% | 1007.7 hPa | 0 mm | - | 0 W/m² | - |
| 1777886207 | 10.56° C | 43% | 1007.3 hPa | 0 mm | - | 0 W/m² | - |
| 1777885307 | 11.11° C | 45% | 1007.7 hPa | 0 mm | - | 0 W/m² | - |
| 1777884407 | 11.11° C | 43% | 1007.2 hPa | 0 mm | - | 0 W/m² | - |
| 1777883507 | 11.67° C | 44% | 1007.1 hPa | 0 mm | - | 0 W/m² | - |
* Rain latest hour (hover to see other rain measurements)
** Current wind speed in m/s (hover to see current wind gust speed)